User: anonymous   Login
Location: ??????
(55.8274°N, 37.9338°E)
Time: 07:51:40
(UTC+00:00)
Language:

Cosmos 2322 Rocket - Orbit

View from above orbital plane
View from above orbital plane
View from above satellite
View from above satellite

Ground track
Ground track

The orbit data is extracted from the following two-line orbital elements,

1 23705U 95058B   24164.93677703  .00000158  00000-0  10548-3 0  9998
2 23705  71.0218  72.7724 0012393 357.7996   2.3070 14.15343068478030
Epoch (UTC): 12 June 2024 22:28:57
Eccentricity: 0.0012393
inclination: 71.0218°
perigee height: 832 km
apogee height: 850 km
right ascension of ascending node: 72.7724°
argument of perigee: 357.7996°
revolutions per day: 14.15343068
mean anomaly at epoch: 2.3070°
orbit number at epoch: 47803

The dashed part of the orbit path shows where the satellite is in the earth's shadow,  

DLR